Regional Weather Roundup
Issued by NWS

Home | Current Version | Previous Version | Graphics & Text | Print | Product List | Glossary Off
Versions: 1 2 3 4 5 6 7 8 9 10 11 12 13 14 15 16 17 18 19 20 21 22 23 24 25 26 27 28 29 30 31 32 33 34 35 36 37 38 39 40 41 42 43 44 45 46 47 48 49 50

000
ASUS43 KMPX 272110
RWRMN
WEATHER ROUNDUP FOR MINNESOTA
NATIONAL WEATHER SERVICE TWIN CITIES/CHANHASSEN MN
400 PM CDT MON JUL 27 2015


NOTE: "FAIR" INDICATES FEW OR NO CLOUDS BELOW 12,000 FEET WITH NO
SIGNIFICANT WEATHER AND/OR OBSTRUCTIONS TO VISIBILITY. N/A MEANS
CURRENT SKY AND/OR WEATHER CONDITIONS ARE NOT AVAILABLE.

MNZ060>063-068>070-272200-
   Twin Cities Metro

CITY           SKY/WX    TMP DP  RH WIND       PRES   REMARKS
TWIN CITIES    PTSUNNY   85  71  63 SE14      29.92F HX  90
ST PAUL        CLOUDY    85  72  65 SE14      29.93F HX  91
CRYSTAL        PTSUNNY   87  71  58 S14       29.90F HX  93
BLAINE         PTSUNNY   88  72  58 SE10      29.93S HX  94
LAKEVILLE      CLOUDY    82  72  69 SE8G16    29.92F
EDEN PRAIRIE   CLOUDY    86  72  62 SE14      29.91F HX  92
SOUTH ST PAUL  PTSUNNY   84  69  60 SE9       29.93F
LAKE ELMO      PTSUNNY   82  72  69 SE7       29.96S
$$
MNZ001>005-007-008-013>017-022>024-027-028-272200-
   Northwest Minnesota

CITY           SKY/WX    TMP DP  RH WIND       PRES   REMARKS
BEMIDJI        MOSUNNY   84  70  61 SE13G18   29.90S
HALLOCK        MOSUNNY   88  72  58 SE15      29.80F HX  94
ROSEAU         SUNNY     86  72  62 SE9       29.86F HX  92
WARROAD        SUNNY     88  72  58 S8        29.87F HX  94
THIEF RVR FALL PTSUNNY   81  70  69 SE12      29.86F
CROOKSTON      PTSUNNY   82  72  69 S12       29.83F
FOSSTON        MOSUNNY   84  72  65 CALM      29.88S
DETROIT LAKES  PTSUNNY   82  68  61 SE17      29.88F
MOORHEAD       PTSUNNY   88  72  58 SE14      29.83F HX  94
PARK RAPIDS    PTSUNNY   86  69  56 S12       29.90S HX  90
MAHNOMEN       FAIR      83  70  65 SE8       29.87S
$$
MNZ006-009>011-018-025>026-272200-
   North Central Minnesota

CITY           SKY/WX    TMP DP  RH WIND       PRES   REMARKS
BAUDETTE       MOSUNNY   87  66  49 S10       29.89F
FLAG ISLAND    MOSUNNY   82  70  65 S8        29.88F
INTL FALLS     MOSUNNY   87  64  46 VRB7      29.91F
WASKISH        MOSUNNY   84  72  65 SE5       29.90S
BIG FORK       MOSUNNY   90  64  43 S9        29.93F HX  91
LONGVILLE      SUNNY     84  66  54 SE10G18   29.92S
GRAND RAPIDS   MOSUNNY   84  64  51 S14       29.94S
CRANE LAKE     SUNNY     88  55  33 S9        29.94F
ORR            MOSUNNY   90  57  33 SE10G16   29.91F
COOK           SUNNY     88  55  33 SE10G17   29.94F
WALKER         MOCLDY    84  69  60 SE7       29.90F
$$
MNZ012-019>021-037-272200-
   Northeast Minnesota

CITY           SKY/WX    TMP DP  RH WIND       PRES   REMARKS
DULUTH         MOSUNNY   85  63  47 SE10      29.97S
ELY            SUNNY     88  46  23 S14       29.96S
HIBBING        SUNNY     86  61  42 S9        29.95S
EVELETH        MOSUNNY   86  59  39 SE10      29.97S
DULUTH HARBOR  MOSUNNY   81  72  74 NE10      29.94F
TWO HARBORS    MOSUNNY   88  72  58 E8        29.95F HX  94
SILVER BAY     MOSUNNY   82  64  54 E8        29.96F
GRAND MARAIS     N/A     66  61  84 SW6       29.96F
G MARAIS ARPRT   N/A     81  52  36 S5        30.04S
$$
MNZ029>031-032-039>041-046>048-054>057-064-272200-
   West Central Minnesota

CITY           SKY/WX    TMP DP  RH WIND       PRES   REMARKS
FERGUS FALLS   MOSUNNY   88  72  58 S16       29.84F HX  94
WHEATON        MOSUNNY   82  73  74 SE17G23   29.84F
MORRIS         MOSUNNY   84  73  70 SE15G21   29.85F HX  91
ALEXANDRIA     PTSUNNY   84  71  65 SE16      29.90F
ELBOW LAKE     FAIR      84  72  67 SE14      29.86S HX  90
WADENA         MOSUNNY   86  70  58 SE16      29.89F HX  90
GLENWOOD       SUNNY     86  72  62 SE16G23   29.90F HX  92
APPLETON       PTSUNNY   86  73  66 SE12G20   29.84F HX  93
BENSON         PTSUNNY   84  72  65 S9G17     29.86F
ORTONVILLE     PTSUNNY   84  73  70 SE13G18   29.84F HX  91
MADISON        SUNNY     84  73  70 SE12G22   29.84F HX  91
WILLMAR        FAIR      84  75  74 SE13G22   29.89F HX  92
$$
MNZ033>034-036-042>043-049>051-058-059-272200-
   Central Minnesota

CITY           SKY/WX    TMP DP  RH WIND       PRES   REMARKS
ST CLOUD       MOSUNNY   87  71  58 SE17      29.90F HX  93
SAUK CENTRE    MOCLDY    83  72  69 SE8G17    29.90F
PAYNESVILLE    PTSUNNY   81  72  74 E10G16    29.90F
AITKIN         SUNNY     86  70  58 SE10G16   29.92F HX  90
PINE RIVER     MOSUNNY   82  70  65 SE9G18    29.95S
BRAINERD       PTSUNNY   84  69  60 SE8       29.91F
STAPLES        SUNNY     84  68  58 S13       29.90F
LONG PRAIRIE   FAIR      82  70  65 SE15G23   29.91S
LITTLE FALLS   MOSUNNY   84  68  58 SE12      29.90F
LITCHFIELD     SUNNY     84  75  74 SE10G18   29.90F HX  92
BUFFALO        MOSUNNY   84  70  63 SE8G17    29.92F
MAPLE LAKE     MOSUNNY   84  75  74 SE8       29.92F HX  92
$$
MNZ037-044-045-052-053-272200-
   East Central Minnesota

CITY           SKY/WX    TMP DP  RH WIND       PRES   REMARKS
PRINCETON      MOSUNNY   88  72  58 SE12G17   29.92F HX  94
MORA           SUNNY     82  68  61 SE7       29.95F
CAMBRIDGE        N/A     88  70  55 SE10G20   29.92S HX  92
RUSH CITY      PTSUNNY   83  69  61 SE12      29.94F
MOOSE LAKE     PTSUNNY   82  66  57 S5        29.93F
HINCKLEY       MOCLDY    86  68  54 SE8       29.94F
CLOQUET        MOSUNNY   82  63  51 S8G16     29.96F
MCGREGOR       SUNNY     84  68  58 S10G18    29.94F
$$
MNZ071>073-080-081-089-090-097-098-272200-
   Southwest Minnesota

CITY           SKY/WX    TMP DP  RH WIND       PRES   REMARKS
MONTEVIDEO     PTSUNNY   86  73  66 S10G20    29.87F HX  93
GRANITE FALLS  MOSUNNY   83  74  72 SE15      29.87F HX  90
CANBY          SUNNY     87  72  61 SE14G20   29.85S HX  94
MARSHALL       MOSUNNY   88  72  58 S15       29.87F HX  94
REDWOOD FALLS  PTSUNNY   84  74  71 SE18G24   29.87F HX  91
OLIVIA         PTSUNNY   81  70  69 SE15      29.88F
PIPESTONE      SUNNY     84  68  58 S13       29.87F
WINDOM         SUNNY     84  70  61 SE14      29.88F
WORTHINGTON    SUNNY     81  70  69 SE12      29.88F
JACKSON        MOSUNNY   82  70  65 SE14G20   29.90F
TRACY          SUNNY     86  73  66 SE12G18   29.87F HX  93
SLAYTON        SUNNY     83  69  60 S9        29.89F
$$
MNZ065>067-074>077-082>085-091>093-272200-
   South Central Minnesota

CITY           SKY/WX    TMP DP  RH WIND       PRES   REMARKS
MANKATO        PTSUNNY   82  72  69 SE18G24   29.90F
NEW ULM        PTSUNNY   82  75  78 SE13G20   29.89S
ST JAMES       MOSUNNY   82  73  74 SE15      29.89F
FAIRMONT       MOSUNNY   81  68  65 SE16G22   29.89F
GLENCOE        PTSUNNY   85  75  71 SE9G17    29.90F HX  94
FARIBAULT      PTSUNNY   84  73  70 SE12G18   29.92F HX  91
OWATONNA       CLOUDY    82  72  69 SE15G21   29.93F
WASECA         PTSUNNY   79  72  78 SE10G20   29.93F
ALBERT LEA     CLOUDY    81  73  78 SE18      29.92F
$$
MNZ078>079-086>088-094>096-272200-
   Southeast Minnesota

CITY           SKY/WX    TMP DP  RH WIND       PRES   REMARKS
ROCHESTER      PTSUNNY   81  72  74 S15G22    29.96F
RED WING       CLOUDY    84  70  61 SE9       29.93F
STANTON        CLOUDY    84  72  67 SE9       29.92F
DODGE CENTER   PTSUNNY   81  72  74 SE7       29.96F
WINONA         PTSUNNY   88  72  58 SE10      29.95F HX  94
AUSTIN         CLOUDY    81  72  74 S10G17    29.95S
PRESTON        PTSUNNY   81  69  67 SE13      29.98F
$$
ABBREVIATIONS USED IN REMARKS
   TC - TEMPERATURES IN CELSIUS
  WCI - WIND CHILL INDEX
   HX - HEAT INDEX
  VSB - VISIBILITY
$$


USA.gov is the U.S. government's official web portal to all federal, state and local government web resources and services.